Tracking 18630 objects as of 24-May-2017
HD Live streaming from Space Station
objects crossing your sky now

COSMOS 2286

Track COSMOS 2286 now!
COSMOS 2286 is classified as:


NORAD ID: 23194
Int'l Code: 1994-048A
Perigee: 3,759.9 km
Apogee: 36,633.9 km
Inclination: 67.7 °
Period: 718.3 minutes
Semi major axis: 26567 km
RCS: 14.1879 m2 (large)
Launch date: August 5, 1994
Source: Commonwealth of Independent States (former USSR) (CIS)
Launch site: PLESETSK MISSILE AND SPACE COMPLEX (PKMTR)
Your satellite tracking list
Your tracking list is empty





NASA's NSSDC Master Catalog

Two Line Element Set (TLE):
1 23194U 94048A   17142.73485417 -.00000666 +00000-0 +00000-0 0  9997
2 23194 067.7318 012.5145 6186800 181.7091 174.2995 02.00478087167037
Source of the keplerian elements: AFSPC